Clinton, OK

1:01 PM CDT on September 28, 2016 (GMT -0500)
Clinton Municipal

Weather History for KCLK - November, 2011

Change the Weather History Date:

Sunday, November 27, 2011

  Actual Average (KCSM) Record (KCSM)
Temperature  
Mean Temperature 38 °F -  
Max Temperature 46 °F 54 °F 68 °F (2006)
Min Temperature 30 °F 34 °F 19 °F (1996)
Degree Days  
Heating Degree Days 27    
Moisture  
Dew Point 14 °F    
Average Humidity 41    
Maximum Humidity 64    
Minimum Humidity 18    
Precipitation  
Precipitation 0.00 in - - ()
Sea Level Pressure  
Sea Level Pressure 30.33 in    
Wind  
Wind Speed 14 mph (NNW)    
Max Wind Speed 21 mph    
Max Gust Speed 29 mph    
Visibility 10 miles    
Events      
Averages and records for this station are not official NWS values.
T = Trace of Precipitation, MM = Missing Value Source: NWS Daily Summary

Daily Weather History Graph

Daily Weather History Graph

Search for Another Location

Airport or City:

Trip Planner

Search our weather history database for the weather conditions in past years. The results will help you decide how hot, cold, wet, or windy it might be!

Date:

Astronomy

Nov. 27, 2011 Rise Set
Actual Time 7:22 AM CST 5:23 PM CST
Civil Twilight 6:55 AM CST 5:51 PM CST
Nautical Twilight 6:23 AM CST 6:22 PM CST
Astronomical Twilight 5:53 AM CST 6:53 PM CST
Moon 9:47 AM CST (11/27) 8:04 PM CST (11/27)
Length of Visible Light 10h 56m
Length of Day
10h 00m
Waxing Crescent, 8% of the Moon is Illuminated
Nov 27
Waxing Crescent
Dec 2
First Quarter
Dec 10
Full
Dec 17
Last Quarter
Dec 24
New

Hourly Weather History & Observations

Time (CST) Temp. Windchill Dew Point Humidity Pressure Visibility Wind Dir Wind Speed Gust Speed Precip Events Conditions
12:15 AM 35.6 °F 26.2 °F 21.2 °F 56% 30.35 in 10.0 mi NNW 15.0 mph 19.6 mph N/A   Clear
12:35 AM 35.6 °F 26.2 °F 21.2 °F 56% 30.35 in 10.0 mi NNW 15.0 mph 19.6 mph N/A   Clear
12:55 AM 35.6 °F 25.5 °F 19.4 °F 52% 30.34 in 10.0 mi NNW 17.3 mph 23.0 mph N/A   Clear
1:15 AM 35.6 °F 24.5 °F 17.6 °F 48% 30.34 in 10.0 mi NNW 20.7 mph 28.8 mph N/A   Clear
1:35 AM 35.6 °F 25.2 °F 17.6 °F 48% 30.35 in 10.0 mi NNW 18.4 mph 25.3 mph N/A   Clear
1:55 AM 35.6 °F 26.2 °F 17.6 °F 48% 30.35 in 10.0 mi NNW 15.0 mph 23.0 mph N/A   Clear
2:15 AM 35.6 °F 25.5 °F 17.6 °F 48% 30.34 in 10.0 mi NNW 17.3 mph 23.0 mph N/A   Clear
2:35 AM 35.6 °F 25.9 °F 15.8 °F 44% 30.34 in 10.0 mi NNW 16.1 mph 23.0 mph N/A   Clear
2:55 AM 33.8 °F 22.5 °F 15.8 °F 48% 30.34 in 10.0 mi NNW 19.6 mph - N/A   Clear
3:15 AM 33.8 °F 23.5 °F 15.8 °F 48% 30.35 in 10.0 mi NNW 16.1 mph 21.9 mph N/A   Clear
3:35 AM 33.8 °F 23.9 °F 15.8 °F 48% 30.35 in 10.0 mi NNW 15.0 mph 23.0 mph N/A   Clear
3:55 AM 33.8 °F 23.9 °F 17.6 °F 52% 30.35 in 10.0 mi NNW 15.0 mph 19.6 mph N/A   Clear
4:15 AM 33.8 °F 23.5 °F 15.8 °F 48% 30.35 in 10.0 mi NNW 16.1 mph 24.2 mph N/A   Clear
4:35 AM 33.8 °F 24.3 °F 17.6 °F 52% 30.35 in 10.0 mi NNW 13.8 mph 20.7 mph N/A   Clear
4:55 AM 33.8 °F 24.8 °F 17.6 °F 52% 30.35 in 10.0 mi NNW 12.7 mph 21.9 mph N/A   Clear
5:15 AM 32.0 °F 22.5 °F 17.6 °F 55% 30.35 in 10.0 mi NNW 12.7 mph 18.4 mph N/A   Clear
5:35 AM 32.0 °F 21.2 °F 17.6 °F 55% 30.34 in 10.0 mi NNW 16.1 mph 20.7 mph N/A   Clear
6:35 AM 32.0 °F 22.5 °F 15.8 °F 51% 30.35 in 10.0 mi North 12.7 mph 20.7 mph N/A   Clear
7:15 AM 32.0 °F 22.5 °F 15.8 °F 51% 30.37 in 10.0 mi NNW 12.7 mph 18.4 mph N/A   Clear
7:35 AM 32.0 °F 23.6 °F 15.8 °F 51% 30.37 in 10.0 mi North 10.4 mph - N/A   Clear
7:55 AM 32.0 °F 23.6 °F 15.8 °F 51% 30.38 in 10.0 mi NNW 10.4 mph - N/A   Clear
8:15 AM 32.0 °F 24.2 °F 15.8 °F 51% 30.39 in 10.0 mi NNW 9.2 mph - N/A   Clear
8:35 AM 32.0 °F 23.0 °F 17.6 °F 55% 30.38 in 10.0 mi NNW 11.5 mph - N/A   Clear
8:55 AM 33.8 °F 24.3 °F 17.6 °F 52% 30.38 in 10.0 mi NNW 13.8 mph 17.3 mph N/A   Clear
9:15 AM 33.8 °F 23.9 °F 14.0 °F 44% 30.39 in 10.0 mi NNW 15.0 mph 21.9 mph N/A   Clear
9:35 AM 35.6 °F 24.8 °F 14.0 °F 41% 30.39 in 10.0 mi NNW 19.6 mph 25.3 mph N/A   Clear
9:55 AM 35.6 °F 25.2 °F 14.0 °F 41% 30.39 in 10.0 mi NNW 18.4 mph 24.2 mph N/A   Clear
10:15 AM 37.4 °F 27.2 °F 12.2 °F 36% 30.39 in 10.0 mi North 19.6 mph 25.3 mph N/A   Clear
10:35 AM 37.4 °F 27.5 °F 10.4 °F 33% 30.39 in 10.0 mi North 18.4 mph 28.8 mph N/A   Clear
10:55 AM 39.2 °F 29.6 °F 10.4 °F 31% 30.39 in 10.0 mi NNW 19.6 mph 27.6 mph N/A   Clear
11:15 AM 41.0 °F 32.5 °F 10.4 °F 29% 30.39 in 10.0 mi North 17.3 mph 27.6 mph N/A   Clear
11:35 AM 41.0 °F 33.5 °F 10.4 °F 29% 30.38 in 10.0 mi NW 13.8 mph - N/A   Clear
11:55 AM 42.8 °F 35.4 °F 10.4 °F 27% 30.38 in 10.0 mi NW 15.0 mph 25.3 mph N/A   Clear
12:15 PM 42.8 °F 34.8 °F 10.4 °F 27% 30.36 in 10.0 mi NNW 17.3 mph 21.9 mph N/A   Clear
12:35 PM 44.6 °F 38.1 °F 10.4 °F 25% 30.35 in 10.0 mi NNW 13.8 mph 24.2 mph N/A   Clear
12:55 PM 44.6 °F 36.9 °F 10.4 °F 25% 30.34 in 10.0 mi NNW 18.4 mph 21.9 mph N/A   Clear
1:15 PM 44.6 °F 36.9 °F 10.4 °F 25% 30.33 in 10.0 mi North 18.4 mph 24.2 mph N/A   Clear
1:35 PM 46.4 °F 40.4 °F 8.6 °F 22% 30.32 in 10.0 mi NW 13.8 mph 19.6 mph N/A   Clear
1:55 PM 46.4 °F 39.5 °F 8.6 °F 22% 30.31 in 10.0 mi North 17.3 mph 23.0 mph N/A   Clear
2:15 PM 46.4 °F 40.1 °F 8.6 °F 22% 30.30 in 10.0 mi NNW 15.0 mph 20.7 mph N/A   Clear
2:35 PM 46.4 °F 40.1 °F 8.6 °F 22% 30.29 in 10.0 mi NNW 15.0 mph 20.7 mph N/A   Clear
2:55 PM 46.4 °F 40.7 °F 8.6 °F 22% 30.29 in 10.0 mi NNW 12.7 mph - N/A   Clear
3:15 PM 46.4 °F 39.8 °F 5.0 °F 18% 30.28 in 10.0 mi NNW 16.1 mph 21.9 mph N/A   Clear
3:35 PM 46.4 °F 40.1 °F 8.6 °F 22% 30.28 in 10.0 mi NNW 15.0 mph 19.6 mph N/A   Clear
3:55 PM 46.4 °F 40.4 °F 6.8 °F 20% 30.28 in 10.0 mi NNW 13.8 mph 18.4 mph N/A   Clear
4:15 PM 46.4 °F 40.7 °F 8.6 °F 22% 30.28 in 10.0 mi NNW 12.7 mph - N/A   Clear
4:55 PM 44.6 °F 38.4 °F 8.6 °F 23% 30.27 in 10.0 mi NNW 12.7 mph 17.3 mph N/A   Clear
5:15 PM 42.8 °F 37.0 °F 10.4 °F 27% 30.27 in 10.0 mi NNW 10.4 mph - N/A   Clear
5:35 PM 41.0 °F 36.4 °F 12.2 °F 31% 30.27 in 10.0 mi NNW 6.9 mph - N/A   Clear
5:55 PM 39.2 °F 33.6 °F 12.2 °F 33% 30.27 in 10.0 mi NNW 8.1 mph - N/A   Clear
6:15 PM 37.4 °F 31.4 °F 14.0 °F 38% 30.27 in 10.0 mi NNW 8.1 mph - N/A   Clear
6:35 PM 35.6 °F 30.7 °F 17.6 °F 48% 30.27 in 10.0 mi North 5.8 mph - N/A   Clear
6:55 PM 35.6 °F 31.7 °F 17.6 °F 48% 30.27 in 10.0 mi NW 4.6 mph - N/A   Clear
7:15 PM 35.6 °F 32.8 °F 15.8 °F 44% 30.26 in 10.0 mi NW 3.5 mph - N/A   Clear
7:35 PM 32.0 °F 27.5 °F 19.4 °F 60% 30.26 in 10.0 mi NW 4.6 mph - N/A   Clear
7:55 PM 33.8 °F 29.6 °F 17.6 °F 52% 30.26 in 10.0 mi NW 4.6 mph - N/A   Clear
8:35 PM 30.2 °F - 19.4 °F 64% 30.25 in 10.0 mi Calm Calm - N/A   Clear
8:55 PM 33.8 °F - 19.4 °F 56% 30.25 in 10.0 mi Calm Calm - N/A   Clear
9:15 PM 32.0 °F - 19.4 °F 60% 30.25 in 10.0 mi Calm Calm - N/A   Clear
9:35 PM 32.0 °F 28.7 °F 19.4 °F 60% 30.25 in 10.0 mi North 3.5 mph - N/A   Clear
9:55 PM 32.0 °F 28.7 °F 19.4 °F 60% 30.24 in 10.0 mi NW 3.5 mph - N/A   Clear
10:15 PM 32.0 °F - 19.4 °F 60% 30.24 in 10.0 mi Calm Calm - N/A   Clear
10:35 PM 32.0 °F 28.7 °F 19.4 °F 60% 30.24 in 10.0 mi NNW 3.5 mph - N/A   Clear
10:55 PM 32.0 °F - 19.4 °F 60% 30.22 in 10.0 mi Calm Calm - N/A   Clear
11:15 PM 32.0 °F - 19.4 °F 60% 30.22 in 10.0 mi Calm Calm - N/A   Clear
11:55 PM 30.2 °F - 19.4 °F 64% 30.22 in 10.0 mi Calm Calm - N/A   Clear